Willimantic, CT

11:53 PM EST on January 17, 2018 (GMT -0500)
Windham

Weather History for KIJD - February, 2014

Change the Weather History Date:

Tuesday, February 11, 2014

  Actual Average Record
Temperature  
Mean Temperature 10 °F -  
Max Temperature 24 °F 36 °F 59 °F (2009)
Min Temperature -5 °F 9 °F -14 °F (1962)
Degree Days  
Heating Degree Days 56    
Moisture  
Dew Point -2 °F    
Average Humidity 58    
Maximum Humidity 80    
Minimum Humidity 37    
Precipitation  
Precipitation 0.00 in - - ()
Sea Level Pressure  
Sea Level Pressure 30.34 in    
Wind  
Wind Speed 4 mph (NNW)    
Max Wind Speed 15 mph    
Max Gust Speed 25 mph    
Visibility 9 miles    
Events      
Averages and records for this station are not official NWS values.
T = Trace of Precipitation, MM = Missing Value Source: NWS Daily Summary

Daily Weather History Graph

Daily Weather History Graph

Search for Another Location

Airport or City:

Trip Planner

Search our weather history database for the weather conditions in past years. The results will help you decide how hot, cold, wet, or windy it might be!

Date:

Astronomy

Feb. 11, 2014 Rise Set
Actual Time 6:49 AM EST 5:16 PM EST
Civil Twilight 6:20 AM EST 5:45 PM EST
Nautical Twilight 5:48 AM EST 6:18 PM EST
Astronomical Twilight 5:15 AM EST 6:50 PM EST
Moon 2:33 PM EST (2/11) 4:25 AM EST (2/11)
Length of Visible Light 11h 25m
Length of Day
10h 27m
Waxing Gibbous, 90% of the Moon is Illuminated
Feb 11
Waxing Gibbous
Feb 14
Full
Feb 22
Last Quarter
Mar 1
New
Mar 8
First Quarter

Hourly Weather History & Observations

Time (EST) Temp. Windchill Dew Point Humidity Pressure Visibility Wind Dir Wind Speed Gust Speed Precip Events Conditions
12:52 AM 1.9 °F -5.6 °F -2.9 °F 80% 30.26 in 8.0 mi NE 3.5 mph - N/A   Clear
1:52 AM 1.0 °F - -5.1 °F 75% 30.27 in 8.0 mi Calm Calm - N/A   Clear
2:52 AM -0.0 °F - -5.1 °F 79% 30.27 in 7.0 mi Calm Calm - N/A   Clear
3:52 AM -0.0 °F -9.9 °F -6.0 °F 76% 30.27 in 7.0 mi NE 4.6 mph - N/A   Clear
4:52 AM -4.0 °F -12.4 °F -9.9 °F 76% 30.30 in 6.0 mi NE 3.5 mph - N/A   Haze
5:52 AM -4.0 °F - -9.9 °F 76% 30.30 in 7.0 mi Calm Calm - N/A   Clear
6:52 AM -5.1 °F - -11.0 °F 76% 30.32 in 5.0 mi Calm Calm - N/A   Haze
7:52 AM -2.0 °F - -9.0 °F 72% 30.34 in 5.0 mi Calm Calm - N/A   Haze
8:52 AM 12.9 °F 3.8 °F 3.9 °F 67% 30.35 in 9.0 mi Variable 5.8 mph - N/A   Clear
9:52 AM 19.0 °F 8.2 °F 3.0 °F 50% 30.35 in 10.0 mi NW 9.2 mph - N/A   Clear
10:52 AM 19.0 °F 6.1 °F 1.0 °F 46% 30.36 in 10.0 mi WNW 12.7 mph 25.3 mph N/A   Clear
11:52 AM 19.9 °F 6.2 °F 1.9 °F 46% 30.33 in 10.0 mi WNW 15.0 mph 20.7 mph 0.00 in   Clear
12:52 PM 21.9 °F 9.8 °F 1.0 °F 40% 30.30 in 10.0 mi West 12.7 mph 24.2 mph N/A   Clear
1:52 PM 23.0 °F 12.4 °F 1.9 °F 40% 30.28 in 10.0 mi NNW 10.4 mph 19.6 mph N/A   Clear
2:52 PM 24.1 °F 14.4 °F 1.0 °F 37% 30.29 in 10.0 mi NW 9.2 mph 18.4 mph N/A   Clear
3:52 PM 23.0 °F 13.9 °F -0.0 °F 37% 30.31 in 10.0 mi NW 8.1 mph - N/A   Clear
4:52 PM 21.9 °F 13.4 °F -0.0 °F 38% 30.33 in 10.0 mi NW 6.9 mph - N/A   Clear
5:52 PM 19.9 °F 11.1 °F -0.0 °F 42% 30.35 in 10.0 mi NW 6.9 mph - N/A   Clear
6:52 PM 17.1 °F 11.7 °F -0.0 °F 47% 30.39 in 10.0 mi NNW 3.5 mph - N/A   Clear
7:52 PM 16.0 °F 8.8 °F -0.0 °F 49% 30.41 in 10.0 mi NNW 4.6 mph - N/A   Clear
8:52 PM 10.9 °F 4.7 °F -0.0 °F 61% 30.43 in 10.0 mi Variable 3.5 mph - N/A   Clear
9:52 PM 10.0 °F - -0.9 °F 61% 30.44 in 10.0 mi Calm Calm - N/A   Clear
10:52 PM 10.0 °F - -0.9 °F 61% 30.45 in 10.0 mi Calm Calm - N/A   Clear
11:52 PM 9.0 °F - -2.0 °F 61% 30.46 in 10.0 mi Calm Calm - N/A   Clear